DLH4F EGCC-KLAX

Flight info

Callsign DLH4F
Flight time 4h 6m
Altitude 37000
Route ASMI1S ASMIM L975 WAL M146 LUSOD KUGUR ETARI NATA JANJO DENSO AGLOL MERNU XEXUL BLUOX RAP J158 DDY J107 NORRA J100 LAS Q70 HAILO KOPLE BOGET2
Aircraft A333/H-SDE2E3FGHIJ1RWXYZ/LB1

Departure

Time 2026-04-22 22:35
Airport Manchester Airport (EGCC)

Arrival

Time 2026-04-23 02:41
Airport Los Angeles International Airport (KLAX)
Time Latitude Longitude Altitude Speed Heading
2026-04-22 22:17 53.35793 -2.27520 249 ft 0 kts 51°
2026-04-22 22:21 53.35793 -2.27519 249 ft 0 kts 51°
2026-04-22 22:21 53.35793 -2.27520 249 ft 0 kts 51°
2026-04-22 22:22 53.35783 -2.27538 248 ft 4 kts 51°
2026-04-22 22:22 53.35770 -2.27642 246 ft 16 kts 117°
2026-04-22 22:22 53.35790 -2.27685 245 ft 4 kts 127°
2026-04-22 22:23 53.35806 -2.27718 245 ft 0 kts 136°
2026-04-22 22:23 53.35804 -2.27716 245 ft 0 kts 136°
2026-04-22 22:25 53.35789 -2.27695 245 ft 12 kts 143°
2026-04-22 22:26 53.35641 -2.27623 247 ft 26 kts 208°
2026-04-22 22:26 53.35513 -2.27832 243 ft 26 kts 225°
2026-04-22 22:26 53.35366 -2.28067 241 ft 33 kts 225°
2026-04-22 22:26 53.35207 -2.28352 236 ft 34 kts 229°
2026-04-22 22:27 53.35062 -2.28651 231 ft 33 kts 231°
2026-04-22 22:27 53.34903 -2.28933 223 ft 34 kts 225°
2026-04-22 22:27 53.34741 -2.29245 207 ft 37 kts 227°
2026-04-22 22:27 53.34692 -2.29313 203 ft 0 kts 207°
2026-04-22 22:33 53.34676 -2.29324 203 ft 11 kts 198°
2026-04-22 22:33 53.34570 -2.29308 199 ft 17 kts 140°
2026-04-22 22:33 53.34587 -2.29128 207 ft 23 kts 53°
2026-04-22 22:33 53.34762 -2.28761 223 ft 73 kts 51°
2026-04-22 22:34 53.35140 -2.27978 240 ft 124 kts 51°
2026-04-22 22:34 53.35703 -2.26810 271 ft 168 kts 51°
2026-04-22 22:34 53.36425 -2.25301 349 ft 201 kts 51°
2026-04-22 22:34 53.37208 -2.23714 715 ft 217 kts 53°
2026-04-22 22:35 53.38076 -2.21895 1304 ft 231 kts 56°
2026-04-22 22:35 53.39194 -2.20208 1455 ft 277 kts 32°
2026-04-22 22:35 53.40879 -2.19393 2293 ft 301 kts
2026-04-22 22:35 53.42791 -2.19801 3359 ft 317 kts 345°
2026-04-22 22:36 53.44579 -2.21462 4372 ft 329 kts 320°
2026-04-22 22:36 53.45875 -2.24123 5492 ft 330 kts 297°
2026-04-22 22:36 53.46499 -2.27412 6588 ft 328 kts 274°
2026-04-22 22:36 53.46397 -2.30943 7617 ft 327 kts 262°
2026-04-22 22:37 53.46273 -2.34521 8532 ft 332 kts 267°
2026-04-22 22:37 53.46550 -2.38216 9323 ft 341 kts 281°
2026-04-22 22:37 53.47063 -2.41815 10254 ft 344 kts 279°
2026-04-22 22:37 53.47325 -2.45490 11068 ft 347 kts 275°
2026-04-22 22:38 53.47554 -2.49194 11854 ft 351 kts 274°
2026-04-22 22:38 53.47505 -2.53005 12585 ft 352 kts 260°
2026-04-22 22:38 53.47144 -2.56828 13323 ft 353 kts 252°
2026-04-22 22:38 53.46205 -2.60458 14085 ft 354 kts 242°
2026-04-22 22:39 53.45100 -2.63898 14720 ft 357 kts 240°
2026-04-22 22:39 53.44308 -2.67580 15317 ft 366 kts 257°
2026-04-22 22:39 53.43910 -2.71545 15949 ft 368 kts 257°
2026-04-22 22:39 53.43478 -2.75442 16372 ft 371 kts 258°
2026-04-22 22:40 53.43036 -2.79427 16329 ft 388 kts 258°
2026-04-22 22:40 53.42569 -2.83608 16344 ft 402 kts 258°
2026-04-22 22:40 53.42091 -2.87882 16551 ft 410 kts 258°
2026-04-22 22:40 53.41594 -2.92302 17027 ft 410 kts 258°
2026-04-22 22:41 53.41055 -2.97081 17471 ft 412 kts 258°
2026-04-22 22:41 53.40520 -3.01805 17844 ft 416 kts 258°
2026-04-22 22:41 53.39999 -3.06589 18264 ft 418 kts 262°
2026-04-22 22:41 53.40067 -3.11429 18564 ft 423 kts 280°
2026-04-22 22:42 53.41034 -3.16113 18976 ft 426 kts 297°
2026-04-22 22:42 53.42783 -3.20096 19376 ft 429 kts 315°
2026-04-22 22:42 53.44968 -3.23478 19791 ft 430 kts 316°
2026-04-22 22:42 53.47081 -3.26952 20172 ft 432 kts 315°
2026-04-22 22:43 53.49209 -3.30537 20520 ft 434 kts 314°
2026-04-22 22:43 53.51322 -3.34135 20904 ft 436 kts 314°
2026-04-22 22:43 53.53438 -3.37756 21276 ft 437 kts 314°
2026-04-22 22:43 53.55550 -3.41380 21607 ft 438 kts 314°
2026-04-22 22:44 53.57661 -3.45063 21930 ft 440 kts 310°
2026-04-22 22:44 53.59487 -3.49208 22231 ft 441 kts 304°
2026-04-22 22:44 53.61239 -3.53371 22569 ft 442 kts 304°
2026-04-22 22:44 53.63020 -3.57601 22885 ft 443 kts 304°
2026-04-22 22:45 53.64794 -3.61828 23182 ft 445 kts 304°
2026-04-22 22:45 53.66579 -3.66089 23500 ft 446 kts 303°
2026-04-22 22:45 53.68370 -3.70369 23786 ft 448 kts 303°
2026-04-22 22:45 53.70153 -3.74638 24107 ft 449 kts 303°
2026-04-22 22:46 53.71939 -3.78926 24395 ft 451 kts 303°
2026-04-22 22:46 53.73756 -3.83291 24660 ft 453 kts 304°
2026-04-22 22:46 53.75552 -3.87618 24920 ft 455 kts 303°
2026-04-22 22:46 53.77370 -3.91999 25204 ft 457 kts 303°
2026-04-22 22:47 53.79173 -3.96353 25501 ft 458 kts 303°
2026-04-22 22:47 53.80999 -4.00776 25809 ft 459 kts 303°
2026-04-22 22:47 53.82824 -4.05196 26055 ft 461 kts 303°
2026-04-22 22:47 53.84640 -4.09608 26333 ft 462 kts 303°
2026-04-22 22:48 53.86485 -4.14096 26578 ft 464 kts 303°
2026-04-22 22:48 53.88317 -4.18563 26851 ft 465 kts 303°
2026-04-22 22:48 53.90147 -4.23036 27093 ft 466 kts 303°
2026-04-22 22:48 53.91997 -4.27564 27305 ft 468 kts 303°
2026-04-22 22:49 53.93850 -4.32152 27557 ft 468 kts 301°
2026-04-22 22:49 53.95417 -4.36992 27773 ft 468 kts 295°
2026-04-22 22:49 53.96899 -4.41856 27972 ft 469 kts 296°
2026-04-22 22:49 53.98422 -4.46815 28160 ft 470 kts 296°
2026-04-22 22:50 53.99945 -4.51771 28361 ft 471 kts 296°
2026-04-22 22:50 54.01487 -4.56801 28523 ft 473 kts 296°
2026-04-22 22:50 54.03023 -4.61819 28648 ft 475 kts 296°
2026-04-22 22:50 54.04558 -4.66836 28828 ft 475 kts 295°
2026-04-22 22:51 54.06083 -4.71839 29011 ft 476 kts 295°
2026-04-22 22:51 54.07587 -4.76782 29129 ft 477 kts 295°
2026-04-22 22:51 54.09118 -4.81824 29252 ft 478 kts 295°
2026-04-22 22:51 54.10646 -4.86867 29372 ft 480 kts 295°
2026-04-22 22:52 54.12160 -4.91872 29490 ft 480 kts 295°
2026-04-22 22:52 54.13691 -4.96941 29611 ft 481 kts 295°
2026-04-22 22:52 54.15205 -5.01968 29736 ft 481 kts 295°
2026-04-22 22:52 54.16727 -5.07040 29848 ft 481 kts 295°
2026-04-22 22:53 54.18239 -5.12081 29921 ft 482 kts 295°
2026-04-22 22:53 54.19771 -5.17202 30024 ft 482 kts 295°
2026-04-22 22:53 54.21291 -5.22285 30114 ft 483 kts 294°
2026-04-22 22:54 54.24365 -5.32614 30209 ft 485 kts 294°
2026-04-22 22:54 54.27423 -5.42941 30324 ft 487 kts 294°
2026-04-22 22:55 54.30436 -5.53149 30423 ft 488 kts 294°
2026-04-22 22:55 54.34548 -5.67161 30557 ft 489 kts 294°
2026-04-22 23:09 54.34557 -5.67190 30557 ft 489 kts 294°
2026-04-22 23:09 54.43029 -5.96282 30809 ft 489 kts 293°
2026-04-22 23:09 54.51547 -6.25969 30773 ft 490 kts 293°
2026-04-22 23:10 54.68267 -6.85310 30858 ft 492 kts 292°
2026-04-22 23:10 54.84605 -7.44787 30942 ft 494 kts 291°
2026-04-22 23:11 55.00557 -8.04096 31052 ft 496 kts 290°
2026-04-22 23:11 55.17187 -8.65972 31060 ft 497 kts 289°
2026-04-22 23:12 55.23902 -8.92116 31060 ft 487 kts 278°
2026-04-22 23:12 55.25974 -9.02496 31163 ft 493 kts 287°
2026-04-22 23:13 55.28486 -9.12736 31250 ft 495 kts 288°
2026-04-22 23:13 55.31031 -9.22909 31263 ft 497 kts 288°
2026-04-22 23:14 55.33595 -9.33167 31366 ft 496 kts 288°
2026-04-22 23:14 55.41238 -9.64052 31639 ft 495 kts 288°
2026-04-22 23:15 55.49432 -9.98292 31737 ft 486 kts 278°
2026-04-22 23:15 55.50123 -10.09307 31770 ft 474 kts 267°
2026-04-22 23:16 55.50392 -10.20431 31751 ft 474 kts 266°
2026-04-22 23:16 55.50599 -10.31433 31721 ft 475 kts 266°
2026-04-22 23:17 55.50794 -10.42539 31708 ft 475 kts 266°
2026-04-22 23:17 55.50975 -10.53614 31672 ft 476 kts 266°
2026-04-22 23:18 55.51149 -10.64745 31706 ft 476 kts 266°
2026-04-22 23:18 55.51310 -10.75845 31704 ft 475 kts 265°
2026-04-22 23:19 55.51463 -10.86918 31675 ft 476 kts 266°
2026-04-22 23:19 55.51604 -10.97940 31659 ft 477 kts 266°
2026-04-22 23:20 55.51736 -11.09022 31679 ft 477 kts 266°
2026-04-22 23:20 55.51858 -11.20070 31672 ft 478 kts 266°
2026-04-22 23:21 55.52320 -11.76701 31659 ft 479 kts 265°
2026-04-22 23:21 55.53616 -12.11786 24502 ft 504 kts 280°
2026-04-22 23:21 55.58950 -12.46290 31251 ft 479 kts 284°
2026-04-22 23:22 55.67218 -12.79366 25629 ft 506 kts 298°
2026-04-22 23:22 55.77971 -13.10832 26941 ft 506 kts 301°
2026-04-22 23:22 55.89161 -13.42739 27539 ft 509 kts 302°
2026-04-22 23:22 56.00551 -13.74780 28077 ft 510 kts 303°
2026-04-22 23:23 56.08597 -13.96623 29314 ft 507 kts 305°
2026-04-22 23:23 56.10382 -14.03136 29949 ft 499 kts 286°
2026-04-22 23:23 56.10931 -14.10144 30224 ft 498 kts 270°
2026-04-22 23:23 56.10502 -14.17308 30049 ft 503 kts 255°
2026-04-22 23:24 56.09042 -14.24037 29838 ft 506 kts 239°
2026-04-22 23:24 56.06582 -14.29984 29649 ft 506 kts 223°
2026-04-22 23:24 56.03336 -14.34530 29475 ft 504 kts 207°
2026-04-22 23:24 55.99737 -14.37711 29345 ft 505 kts 206°
2026-04-22 23:25 55.92962 -14.45815 29230 ft 512 kts 213°
2026-04-22 23:25 55.86329 -14.54249 29250 ft 511 kts 213°
2026-04-22 23:26 55.79702 -14.62763 29368 ft 508 kts 214°
2026-04-22 23:26 55.73129 -14.71041 29266 ft 507 kts 212°
2026-04-22 23:27 55.69833 -14.75169 29861 ft 494 kts 212°
2026-04-22 23:27 55.66667 -14.79144 30632 ft 484 kts 212°
2026-04-22 23:27 55.60350 -14.87081 30316 ft 482 kts 214°
2026-04-22 23:28 55.57624 -14.91707 30289 ft 475 kts 230°
2026-04-22 23:28 55.55742 -14.97481 30373 ft 467 kts 247°
2026-04-22 23:28 55.54872 -15.03807 30425 ft 460 kts 264°
2026-04-22 23:28 55.55045 -15.10170 30465 ft 454 kts 282°
2026-04-22 23:29 55.56227 -15.16120 30508 ft 447 kts 300°
2026-04-22 23:29 55.58293 -15.21101 30547 ft 437 kts 318°
2026-04-22 23:29 55.63179 -15.29656 30611 ft 427 kts 311°
2026-04-22 23:30 55.67437 -15.38926 30599 ft 420 kts 310°
2026-04-22 23:30 55.71558 -15.48187 30595 ft 413 kts 310°
2026-04-22 23:31 55.75589 -15.57297 30595 ft 407 kts 310°
2026-04-22 23:31 55.79572 -15.66334 30588 ft 402 kts 310°
2026-04-22 23:32 55.83479 -15.75241 30565 ft 397 kts 310°
2026-04-22 23:32 55.87356 -15.84107 30553 ft 392 kts 310°
2026-04-22 23:33 55.91167 -15.92855 30548 ft 388 kts 310°
2026-04-22 23:33 55.94952 -16.01569 30528 ft 384 kts 310°
2026-04-22 23:34 56.10686 -16.38141 30550 ft 384 kts 310°
2026-04-22 23:34 56.30010 -16.83821 30711 ft 386 kts 308°
2026-04-22 23:35 56.39677 -17.06995 30822 ft 385 kts 307°
2026-04-22 23:35 56.46966 -17.24649 31074 ft 385 kts 307°
2026-04-22 23:35 56.56445 -17.47756 32275 ft 385 kts 306°
2026-04-22 23:35 56.65978 -17.71230 33522 ft 385 kts 305°
2026-04-22 23:36 56.75482 -17.94871 34527 ft 385 kts 304°
2026-04-22 23:36 56.84824 -18.18336 35194 ft 386 kts 305°
2026-04-22 23:36 56.94243 -18.42208 35701 ft 387 kts 305°
2026-04-22 23:36 57.03600 -18.66175 36142 ft 387 kts 304°
2026-04-22 23:37 57.13044 -18.90608 36314 ft 389 kts 304°
2026-04-22 23:37 57.22326 -19.14850 36271 ft 392 kts 304°
2026-04-22 23:37 57.41211 -19.64960 36342 ft 398 kts 305°
2026-04-22 23:38 57.60111 -20.16176 36371 ft 405 kts 304°
2026-04-22 23:38 57.79027 -20.68555 36361 ft 412 kts 303°
2026-04-22 23:39 57.98047 -21.22402 36362 ft 419 kts 304°
2026-04-22 23:39 58.17343 -21.78311 36383 ft 427 kts 303°
2026-04-22 23:40 58.36662 -22.35629 36399 ft 434 kts 304°
2026-04-22 23:40 58.56024 -22.94500 36416 ft 442 kts 303°
2026-04-22 23:41 58.75320 -23.54685 36423 ft 449 kts 303°
2026-04-22 23:41 58.94765 -24.16932 36430 ft 455 kts 303°
2026-04-22 23:42 59.14145 -24.80656 36446 ft 461 kts 302°
2026-04-22 23:42 59.33306 -25.45457 36446 ft 466 kts 302°
2026-04-22 23:43 59.52416 -26.11934 36446 ft 470 kts 302°
2026-04-22 23:43 59.71368 -26.79843 36456 ft 474 kts 301°
2026-04-22 23:44 59.90021 -27.48719 36474 ft 476 kts 301°
2026-04-22 23:44 60.08436 -28.18843 36473 ft 479 kts 301°
2026-04-22 23:45 60.26664 -28.90517 36495 ft 482 kts 300°
2026-04-22 23:45 60.44365 -29.62420 36504 ft 484 kts 300°
2026-04-22 23:46 60.61903 -30.36070 36510 ft 485 kts 300°
2026-04-22 23:46 60.79111 -31.10860 36257 ft 486 kts 299°
2026-04-22 23:47 60.87553 -31.48527 36516 ft 486 kts 299°
2026-04-22 23:47 60.95850 -31.86208 36449 ft 486 kts 298°
2026-04-22 23:47 61.12125 -32.62177 36731 ft 487 kts 299°
2026-04-22 23:48 61.20134 -33.00615 36492 ft 488 kts 298°
2026-04-22 23:48 61.28105 -33.39583 36545 ft 487 kts 298°
2026-04-22 23:48 61.43580 -34.17485 36452 ft 488 kts 298°
2026-04-22 23:49 61.51090 -34.56398 36215 ft 487 kts 298°
2026-04-22 23:49 61.58520 -34.95697 35375 ft 476 kts 299°
2026-04-22 23:49 61.65601 -35.33884 34039 ft 463 kts 299°
2026-04-22 23:49 61.72371 -35.71047 34626 ft 458 kts 298°
2026-04-22 23:50 61.79162 -36.09129 34503 ft 463 kts 298°
2026-04-22 23:50 61.85843 -36.47331 34472 ft 467 kts 298°
2026-04-22 23:50 61.98942 -37.24595 34429 ft 473 kts 296°
2026-04-22 23:51 62.11798 -38.03753 34418 ft 477 kts 294°
2026-04-22 23:51 62.21401 -38.65250 34468 ft 471 kts 293°
2026-04-22 23:56 62.26379 -38.98012 34434 ft 467 kts 294°
2026-04-22 23:57 62.38369 -39.76785 34394 ft 459 kts 296°
2026-04-22 23:57 62.50715 -40.54796 34400 ft 460 kts 293°
2026-04-22 23:58 62.62563 -41.33115 34379 ft 457 kts 291°
2026-04-22 23:58 62.73976 -42.12177 34369 ft 459 kts 289°
2026-04-22 23:59 62.80413 -42.58456 34312 ft 456 kts 290°
2026-04-22 23:59 62.81191 -42.64961 34280 ft 457 kts 278°
2026-04-22 23:59 62.81129 -42.71744 34316 ft 462 kts 262°
2026-04-23 00:00 62.79108 -43.01495 34316 ft 469 kts 263°
2026-04-23 00:01 62.72940 -43.94796 34346 ft 472 kts 262°
2026-04-23 00:01 62.66835 -44.78769 34374 ft 472 kts 260°
2026-04-23 00:02 62.60491 -45.59182 34394 ft 473 kts 260°
2026-04-23 00:02 62.53608 -46.40088 34338 ft 472 kts 258°
2026-04-23 00:03 62.46511 -47.18009 34268 ft 471 kts 257°
2026-04-23 00:03 62.39129 -47.94101 34262 ft 465 kts 256°
2026-04-23 00:04 62.31087 -48.72159 34236 ft 462 kts 254°
2026-04-23 00:04 62.22374 -49.51740 34343 ft 459 kts 253°
2026-04-23 00:05 62.13819 -50.25856 34368 ft 457 kts 251°
2026-04-23 00:05 62.04883 -50.99338 34337 ft 455 kts 250°
2026-04-23 00:06 61.95309 -51.74303 34278 ft 453 kts 249°
2026-04-23 00:06 61.85423 -52.48230 34346 ft 451 kts 248°
2026-04-23 00:07 61.75233 -53.20958 34293 ft 449 kts 247°
2026-04-23 00:07 61.64698 -53.92867 34312 ft 445 kts 245°
2026-04-23 00:08 61.53879 -54.63800 34301 ft 442 kts 245°
2026-04-23 00:08 61.42574 -55.34965 34273 ft 439 kts 244°
2026-04-23 00:09 61.31229 -56.03644 34279 ft 440 kts 243°
2026-04-23 00:09 61.19693 -56.70928 34257 ft 440 kts 241°
2026-04-23 00:10 61.07635 -57.38805 34262 ft 436 kts 241°
2026-04-23 00:10 60.95257 -58.06022 33885 ft 425 kts 239°
2026-04-23 00:10 60.94059 -58.12448 34271 ft 410 kts 239°
2026-04-23 00:11 60.93005 -58.18037 34381 ft 404 kts 239°
2026-04-23 00:11 60.91964 -58.23552 34179 ft 403 kts 238°
2026-04-23 00:11 60.90956 -58.28888 34392 ft 395 kts 238°
2026-04-23 00:11 60.89933 -58.34262 34260 ft 395 kts 238°
2026-04-23 00:12 60.88929 -58.39540 34334 ft 392 kts 238°
2026-04-23 00:12 60.86431 -58.52596 34301 ft 398 kts 238°
2026-04-23 00:13 60.74709 -59.12767 34401 ft 407 kts 237°
2026-04-23 00:13 60.62631 -59.72962 34360 ft 414 kts 237°
2026-04-23 00:14 60.49481 -60.36537 34334 ft 419 kts 237°
2026-04-23 00:14 60.35813 -61.00574 34328 ft 421 kts 235°
2026-04-23 00:15 60.21558 -61.65328 34324 ft 424 kts 234°
2026-04-23 00:15 60.06964 -62.29649 34299 ft 425 kts 235°
2026-04-23 00:16 59.92253 -62.92529 34268 ft 425 kts 234°
2026-04-23 00:16 59.84740 -63.23967 34371 ft 426 kts 234°
2026-04-23 00:16 59.77002 -63.55932 34423 ft 427 kts 234°
2026-04-23 00:17 59.61388 -64.19000 34308 ft 430 kts 233°
2026-04-23 00:17 59.45354 -64.81928 34178 ft 431 kts 233°
2026-04-23 00:18 59.29080 -65.44022 34264 ft 433 kts 232°
2026-04-23 00:18 59.12511 -66.05492 34283 ft 436 kts 232°
2026-04-23 00:19 58.95214 -66.67943 34243 ft 441 kts 232°
2026-04-23 00:19 58.77402 -67.30509 34350 ft 447 kts 234°
2026-04-23 00:20 58.59084 -67.93150 34319 ft 453 kts 234°
2026-04-23 00:20 58.40307 -68.55643 34304 ft 459 kts 234°
2026-04-23 00:21 58.20809 -69.18832 34245 ft 465 kts 234°
2026-04-23 00:21 58.00978 -69.81374 34201 ft 470 kts 234°
2026-04-23 00:22 57.80512 -70.44235 34194 ft 474 kts 234°
2026-04-23 00:22 57.59897 -71.05911 34142 ft 478 kts 234°
2026-04-23 00:23 57.38971 -71.66940 34106 ft 481 kts 234°
2026-04-23 00:23 57.17350 -72.28400 34073 ft 484 kts 234°
2026-04-23 00:24 56.95112 -72.90012 34054 ft 486 kts 234°
2026-04-23 00:24 56.72557 -73.50929 34050 ft 488 kts 235°
2026-04-23 00:25 56.49404 -74.11921 34037 ft 489 kts 234°
2026-04-23 00:25 56.26050 -74.71922 34029 ft 492 kts 234°
2026-04-23 00:26 56.02238 -75.31634 34031 ft 493 kts 235°
2026-04-23 00:26 55.78082 -75.90726 34031 ft 494 kts 234°
2026-04-23 00:27 55.53558 -76.49294 34048 ft 495 kts 235°
2026-04-23 00:27 55.28834 -77.06959 34070 ft 495 kts 235°
2026-04-23 00:28 55.03682 -77.64278 34091 ft 495 kts 236°
2026-04-23 00:28 54.78473 -78.20397 34082 ft 496 kts 236°
2026-04-23 00:29 54.52835 -78.76220 34104 ft 495 kts 236°
2026-04-23 00:29 54.26884 -79.31446 34159 ft 495 kts 237°
2026-04-23 00:30 54.00790 -79.85777 34197 ft 495 kts 237°
2026-04-23 00:30 53.74630 -80.39070 34126 ft 495 kts 238°
2026-04-23 00:31 53.48008 -80.92128 34214 ft 495 kts 238°
2026-04-23 00:31 53.21295 -81.44276 34251 ft 494 kts 239°
2026-04-23 00:32 52.94546 -81.95381 34230 ft 487 kts 240°
2026-04-23 00:32 52.67973 -82.45192 34241 ft 478 kts 242°
2026-04-23 00:33 52.41844 -82.93146 34288 ft 472 kts 242°
2026-04-23 00:33 52.15442 -83.40720 34246 ft 474 kts 242°
2026-04-23 00:34 51.89581 -83.86473 34304 ft 468 kts 241°
2026-04-23 00:34 51.76673 -84.08983 34161 ft 470 kts 241°
2026-04-23 00:34 51.63805 -84.31214 34132 ft 472 kts 240°
2026-04-23 00:35 51.37954 -84.75307 34145 ft 474 kts 239°
2026-04-23 00:35 51.11619 -85.19421 34161 ft 475 kts 238°
2026-04-23 00:36 50.85275 -85.62774 34133 ft 471 kts 238°
2026-04-23 00:36 50.58416 -86.06239 34140 ft 468 kts 237°
2026-04-23 00:37 50.31230 -86.49458 34079 ft 471 kts 236°
2026-04-23 00:37 50.07032 -86.88817 34021 ft 454 kts 246°
2026-04-23 00:37 50.06035 -86.92033 34057 ft 432 kts 262°
2026-04-23 00:38 50.05706 -86.95374 34061 ft 416 kts 277°
2026-04-23 00:38 50.06789 -87.09484 33981 ft 415 kts 278°
2026-04-23 00:38 50.06414 -87.14526 34041 ft 430 kts 262°
2026-04-23 00:39 50.05181 -87.19346 34074 ft 441 kts 255°
2026-04-23 00:39 50.01845 -87.31625 34048 ft 439 kts 256°
2026-04-23 00:40 49.88538 -87.80480 34044 ft 441 kts 255°
2026-04-23 00:40 49.74441 -88.31150 33997 ft 442 kts 254°
2026-04-23 00:41 49.61270 -88.77569 33995 ft 440 kts 253°
2026-04-23 00:41 49.48024 -89.23335 33952 ft 441 kts 252°
2026-04-23 00:42 49.33734 -89.71772 34421 ft 442 kts 251°
2026-04-23 00:42 49.26189 -89.96951 34548 ft 443 kts 251°
2026-04-23 00:42 49.18817 -90.21303 34535 ft 444 kts 251°
2026-04-23 00:42 49.11511 -90.45170 34825 ft 444 kts 251°
2026-04-23 00:43 49.04499 -90.67887 35091 ft 444 kts 250°
2026-04-23 00:43 48.97212 -90.91312 35323 ft 443 kts 250°
2026-04-23 00:43 48.89716 -91.15156 35483 ft 443 kts 249°
2026-04-23 00:44 48.75095 -91.61004 35362 ft 443 kts 249°
2026-04-23 00:44 48.60412 -92.06246 35356 ft 444 kts 248°
2026-04-23 00:45 48.44845 -92.53339 35315 ft 445 kts 247°
2026-04-23 00:45 48.30054 -92.97292 35307 ft 446 kts 246°
2026-04-23 00:46 48.14911 -93.41535 35252 ft 448 kts 245°
2026-04-23 00:46 47.99651 -93.85329 35206 ft 449 kts 244°
2026-04-23 00:47 47.84194 -94.28966 35178 ft 451 kts 244°
2026-04-23 00:47 47.68663 -94.72128 35115 ft 452 kts 243°
2026-04-23 00:48 47.52796 -95.14936 35113 ft 453 kts 240°
2026-04-23 00:48 47.36181 -95.56969 35077 ft 453 kts 241°
2026-04-23 00:49 47.19295 -95.99177 35044 ft 454 kts 240°
2026-04-23 00:49 47.02207 -96.41281 34965 ft 456 kts 239°
2026-04-23 00:50 46.84946 -96.83115 35064 ft 456 kts 238°
2026-04-23 00:50 46.76208 -97.04054 35270 ft 455 kts 238°
2026-04-23 00:50 46.67824 -97.24022 35391 ft 454 kts 238°
2026-04-23 00:51 46.50371 -97.65125 35416 ft 453 kts 237°
2026-04-23 00:51 46.32679 -98.06119 35446 ft 451 kts 237°
2026-04-23 00:52 46.15132 -98.46223 35445 ft 450 kts 236°
2026-04-23 00:52 45.97421 -98.86130 35478 ft 449 kts 235°
2026-04-23 00:53 45.78926 -99.27185 35571 ft 449 kts 235°
2026-04-23 00:53 45.60273 -99.67999 35534 ft 448 kts 233°
2026-04-23 00:54 45.41845 -100.07770 35473 ft 448 kts 233°
2026-04-23 00:54 45.32477 -100.27792 35595 ft 447 kts 232°
2026-04-23 00:54 45.23082 -100.47697 35392 ft 446 kts 232°
2026-04-23 00:54 45.13673 -100.67477 35288 ft 445 kts 231°
2026-04-23 00:55 45.04335 -100.86995 35510 ft 442 kts 231°
2026-04-23 00:55 44.94899 -101.06634 35401 ft 441 kts 230°
2026-04-23 00:55 44.85473 -101.26068 35279 ft 441 kts 230°
2026-04-23 00:55 44.76080 -101.45279 35821 ft 440 kts 230°
2026-04-23 00:56 44.66547 -101.64665 35448 ft 442 kts 230°
2026-04-23 00:56 44.48017 -102.01997 35552 ft 443 kts 231°
2026-04-23 00:57 44.29733 -102.38384 35522 ft 443 kts 232°
2026-04-23 00:57 44.11074 -102.75035 35435 ft 441 kts 232°
2026-04-23 00:57 44.01472 -102.93678 35578 ft 438 kts 232°
2026-04-23 00:58 43.98361 -102.99744 35538 ft 437 kts 233°
2026-04-23 00:58 43.96902 -103.03218 35497 ft 438 kts 244°
2026-04-23 00:58 43.96010 -103.06979 35555 ft 437 kts 250°
2026-04-23 00:59 43.94209 -103.14531 35570 ft 435 kts 247°
2026-04-23 00:59 43.92270 -103.22197 35579 ft 434 kts 247°
2026-04-23 01:00 43.90324 -103.29802 35625 ft 432 kts 247°
2026-04-23 01:00 43.88408 -103.37266 35658 ft 432 kts 247°
2026-04-23 01:01 43.86475 -103.44778 35647 ft 433 kts 246°
2026-04-23 01:01 43.84541 -103.52272 35751 ft 429 kts 246°
2026-04-23 01:02 43.82640 -103.59616 35744 ft 430 kts 247°
2026-04-23 01:02 43.80726 -103.66972 35705 ft 431 kts 246°
2026-04-23 01:03 43.78787 -103.74412 35755 ft 430 kts 246°
2026-04-23 01:03 43.76844 -103.81844 35729 ft 429 kts 246°
2026-04-23 01:04 43.74888 -103.89301 35725 ft 429 kts 246°
2026-04-23 01:04 43.71965 -104.00397 35746 ft 429 kts 246°
2026-04-23 01:05 43.70006 -104.07809 35756 ft 430 kts 247°
2026-04-23 01:05 43.68061 -104.15151 35732 ft 431 kts 246°
2026-04-23 01:06 43.66048 -104.22718 35750 ft 431 kts 246°
2026-04-23 01:06 43.64920 -104.26943 35695 ft 431 kts 245°
2026-04-23 01:07 43.62971 -104.34235 35727 ft 427 kts 246°
2026-04-23 01:07 43.61048 -104.41409 35736 ft 425 kts 245°
2026-04-23 01:08 43.59098 -104.48661 35718 ft 424 kts 246°
2026-04-23 01:08 43.57159 -104.55846 35711 ft 423 kts 246°
2026-04-23 01:09 43.55195 -104.63118 35730 ft 422 kts 246°
2026-04-23 01:09 43.53202 -104.70445 35727 ft 422 kts 245°
2026-04-23 01:10 43.51218 -104.77746 35736 ft 422 kts 245°
2026-04-23 01:10 43.49212 -104.85089 35751 ft 423 kts 245°
2026-04-23 01:11 43.47212 -104.92394 35718 ft 424 kts 245°
2026-04-23 01:11 43.45225 -104.99635 35736 ft 424 kts 244°
2026-04-23 01:12 43.43207 -105.06964 35743 ft 425 kts 245°
2026-04-23 01:12 43.42201 -105.10602 35998 ft 420 kts 245°
2026-04-23 01:12 43.41220 -105.14157 36282 ft 416 kts 245°
2026-04-23 01:13 43.39437 -105.20573 35318 ft 430 kts 245°
2026-04-23 01:13 43.33787 -105.40947 35537 ft 426 kts 244°
2026-04-23 01:13 43.28100 -105.61146 36276 ft 425 kts 245°
2026-04-23 01:13 43.22285 -105.81617 35393 ft 429 kts 244°
2026-04-23 01:14 43.16356 -106.02389 35962 ft 427 kts 244°
2026-04-23 01:14 43.10321 -106.23415 35847 ft 429 kts 244°
2026-04-23 01:14 43.09249 -106.26952 36079 ft 427 kts 239°
2026-04-23 01:14 43.07811 -106.30042 35752 ft 425 kts 232°
2026-04-23 01:15 43.03489 -106.38411 36283 ft 421 kts 232°
2026-04-23 01:15 42.94143 -106.56084 35676 ft 424 kts 232°
2026-04-23 01:15 42.84726 -106.73872 35906 ft 425 kts 233°
2026-04-23 01:15 42.75316 -106.91545 35977 ft 426 kts 232°
2026-04-23 01:16 42.56177 -107.27110 35945 ft 428 kts 233°
2026-04-23 01:16 42.36990 -107.62386 35935 ft 429 kts 233°
2026-04-23 01:17 42.17726 -107.97327 35945 ft 430 kts 234°
2026-04-23 01:17 42.10802 -108.09822 35959 ft 429 kts 234°
2026-04-23 01:18 42.05418 -108.19489 35952 ft 429 kts 234°
2026-04-23 01:18 41.98990 -108.30990 35971 ft 428 kts 234°
2026-04-23 01:19 41.92607 -108.42368 35960 ft 428 kts 234°
2026-04-23 01:19 41.86240 -108.53670 35987 ft 427 kts 234°
2026-04-23 01:20 41.79854 -108.64956 35979 ft 427 kts 234°
2026-04-23 01:20 41.73438 -108.76266 36029 ft 426 kts 234°
2026-04-23 01:21 41.67063 -108.87458 36028 ft 427 kts 234°
2026-04-23 01:21 41.60656 -108.98668 36046 ft 426 kts 234°
2026-04-23 01:22 41.53432 -109.08934 36086 ft 426 kts 227°
2026-04-23 01:22 41.45896 -109.18896 36028 ft 427 kts 227°
2026-04-23 01:23 41.38397 -109.28770 36049 ft 427 kts 227°
2026-04-23 01:23 41.30875 -109.38638 36068 ft 427 kts 227°
2026-04-23 01:24 41.23351 -109.48484 36070 ft 426 kts 227°
2026-04-23 01:24 41.15886 -109.58220 36060 ft 425 kts 227°
2026-04-23 01:25 41.08332 -109.68020 35846 ft 425 kts 226°
2026-04-23 01:25 41.04539 -109.72937 36056 ft 422 kts 227°
2026-04-23 01:25 41.00814 -109.77755 36138 ft 423 kts 226°
2026-04-23 01:26 40.93335 -109.87401 36094 ft 424 kts 227°
2026-04-23 01:26 40.82687 -110.01089 36061 ft 425 kts 226°
2026-04-23 01:27 40.75107 -110.10801 36027 ft 425 kts 226°
2026-04-23 01:27 40.67541 -110.20448 36002 ft 426 kts 227°
2026-04-23 01:28 40.60019 -110.30015 36024 ft 426 kts 226°
2026-04-23 01:28 40.40002 -110.55314 36043 ft 426 kts 227°
2026-04-23 01:29 40.16717 -110.84494 36195 ft 427 kts 226°
2026-04-23 01:29 39.93693 -111.13010 36000 ft 429 kts 226°
2026-04-23 01:30 39.70113 -111.41942 36060 ft 428 kts 227°
2026-04-23 01:30 39.46079 -111.71145 36117 ft 427 kts 227°
2026-04-23 01:31 39.22656 -111.99361 36182 ft 427 kts 227°
2026-04-23 01:31 39.10980 -112.13292 35937 ft 426 kts 228°
2026-04-23 01:31 38.99104 -112.27421 36153 ft 424 kts 228°
2026-04-23 01:32 38.75343 -112.55469 36148 ft 424 kts 228°
2026-04-23 01:32 38.52213 -112.82546 36187 ft 422 kts 227°
2026-04-23 01:33 38.36172 -113.01115 36146 ft 422 kts 225°
2026-04-23 01:33 38.24571 -113.10633 36239 ft 426 kts 220°
2026-04-23 01:34 38.21390 -113.13225 36123 ft 427 kts 220°
2026-04-23 01:34 38.13803 -113.19372 36211 ft 425 kts 220°
2026-04-23 01:34 37.95027 -113.34506 36157 ft 423 kts 221°
2026-04-23 01:35 37.82446 -113.44595 36170 ft 421 kts 220°
2026-04-23 01:35 37.67699 -113.56320 36158 ft 419 kts 221°
2026-04-23 01:36 37.56612 -113.65112 36133 ft 418 kts 220°
2026-04-23 01:36 37.47494 -113.72311 36157 ft 418 kts 220°
2026-04-23 01:37 37.38345 -113.79512 36143 ft 419 kts 221°
2026-04-23 01:37 37.33820 -113.83070 35826 ft 420 kts 221°
2026-04-23 01:37 37.29327 -113.86587 35236 ft 411 kts 221°
2026-04-23 01:38 37.24844 -113.90104 34193 ft 406 kts 221°
2026-04-23 01:38 37.20530 -113.93471 33153 ft 400 kts 221°
2026-04-23 01:38 37.16246 -113.96827 32212 ft 394 kts 221°
2026-04-23 01:38 37.11958 -114.00163 31842 ft 385 kts 221°
2026-04-23 01:39 37.07788 -114.03422 32130 ft 387 kts 221°
2026-04-23 01:39 37.03509 -114.06755 31900 ft 396 kts 221°
2026-04-23 01:39 36.94692 -114.13593 31951 ft 403 kts 221°
2026-04-23 01:40 36.85867 -114.20425 31933 ft 395 kts 221°
2026-04-23 01:40 36.77985 -114.26515 31934 ft 392 kts 221°
2026-04-23 01:41 36.74136 -114.30452 31946 ft 380 kts 234°
2026-04-23 01:41 36.70808 -114.34884 31844 ft 383 kts 235°
2026-04-23 01:42 36.67696 -114.39523 31717 ft 374 kts 240°
2026-04-23 01:42 36.66270 -114.41888 31861 ft 373 kts 236°
2026-04-23 01:42 36.64472 -114.43930 31983 ft 386 kts 227°
2026-04-23 01:43 36.60783 -114.48181 31936 ft 387 kts 232°
2026-04-23 01:43 36.57283 -114.52648 31915 ft 383 kts 234°
2026-04-23 01:44 36.53785 -114.57173 31951 ft 382 kts 232°
2026-04-23 01:44 36.51797 -114.59203 31918 ft 393 kts 225°
2026-04-23 01:44 36.49743 -114.61117 31928 ft 393 kts 225°
2026-04-23 01:45 36.45593 -114.64957 31927 ft 392 kts 225°
2026-04-23 01:45 36.41486 -114.68759 31946 ft 393 kts 225°
2026-04-23 01:46 36.37246 -114.72678 31947 ft 395 kts 225°
2026-04-23 01:46 36.12237 -114.95657 30584 ft 387 kts 225°
2026-04-23 01:47 36.00184 -115.06669 28964 ft 377 kts 224°
2026-04-23 01:47 35.88213 -115.17596 26609 ft 371 kts 224°
2026-04-23 01:47 35.75963 -115.28688 24050 ft 365 kts 224°
2026-04-23 01:47 35.69220 -115.34780 22878 ft 356 kts 224°
2026-04-23 01:48 35.65297 -115.38324 21872 ft 354 kts 223°
2026-04-23 01:48 35.60821 -115.41012 22057 ft 372 kts 204°
2026-04-23 01:48 35.55518 -115.41724 22054 ft 399 kts 186°
2026-04-23 01:48 35.50006 -115.40375 21981 ft 418 kts 172°
2026-04-23 01:49 35.44329 -115.38331 22058 ft 430 kts 172°
2026-04-23 01:49 35.38512 -115.36276 22017 ft 439 kts 172°
2026-04-23 01:49 35.32679 -115.34235 21996 ft 439 kts 172°
2026-04-23 01:49 35.26900 -115.32192 21993 ft 435 kts 172°
2026-04-23 01:50 35.21166 -115.30163 22008 ft 434 kts 171°
2026-04-23 01:50 35.15452 -115.28148 22011 ft 435 kts 172°
2026-04-23 01:50 35.10047 -115.26229 22004 ft 434 kts 171°
2026-04-23 01:50 35.04729 -115.24355 21999 ft 434 kts 172°
2026-04-23 01:51 34.99273 -115.22450 22002 ft 434 kts 172°
2026-04-23 01:51 34.93932 -115.20561 21982 ft 433 kts 172°
2026-04-23 01:51 34.88669 -115.18715 21989 ft 433 kts 172°
2026-04-23 01:51 34.83448 -115.16878 21975 ft 432 kts 171°
2026-04-23 01:52 34.78148 -115.15046 21979 ft 433 kts 172°
2026-04-23 01:52 34.72812 -115.13198 21975 ft 432 kts 171°
2026-04-23 01:52 34.68632 -115.11749 21961 ft 431 kts 171°
2026-04-23 01:52 34.65718 -115.10944 21953 ft 424 kts 182°
2026-04-23 01:53 34.62913 -115.11095 21971 ft 406 kts 199°
2026-04-23 01:53 34.60430 -115.12164 21968 ft 393 kts 215°
2026-04-23 01:53 34.58330 -115.14098 21921 ft 382 kts 231°
2026-04-23 01:53 34.56598 -115.16409 21951 ft 379 kts 233°
2026-04-23 01:54 34.55127 -115.18841 21934 ft 372 kts 246°
2026-04-23 01:54 34.54184 -115.21601 21950 ft 367 kts 254°
2026-04-23 01:54 34.53488 -115.24406 21946 ft 367 kts 257°
2026-04-23 01:54 34.52892 -115.27221 21948 ft 365 kts 258°
2026-04-23 01:55 34.52346 -115.30045 21944 ft 365 kts 259°
2026-04-23 01:55 34.51821 -115.32875 21932 ft 367 kts 259°
2026-04-23 01:55 34.51302 -115.35732 21937 ft 365 kts 259°
2026-04-23 01:55 34.50789 -115.38588 21928 ft 366 kts 260°
2026-04-23 01:56 34.50285 -115.41393 21917 ft 366 kts 260°
2026-04-23 01:56 34.49771 -115.44269 21922 ft 365 kts 259°
2026-04-23 01:56 34.49240 -115.47221 21913 ft 365 kts 259°
2026-04-23 01:56 34.48715 -115.50150 21911 ft 366 kts 259°
2026-04-23 01:57 34.48183 -115.53094 21908 ft 366 kts 259°
2026-04-23 01:57 34.47657 -115.56024 21917 ft 365 kts 259°
2026-04-23 01:57 34.47124 -115.58979 21916 ft 364 kts 260°
2026-04-23 01:57 34.46587 -115.61955 21919 ft 364 kts 259°
2026-04-23 01:58 34.46057 -115.64880 21918 ft 365 kts 259°
2026-04-23 01:58 34.45524 -115.67823 21935 ft 365 kts 259°
2026-04-23 01:58 34.45009 -115.70662 21931 ft 356 kts 259°
2026-04-23 01:58 34.44520 -115.73355 21916 ft 341 kts 259°
2026-04-23 01:59 34.44040 -115.75992 21914 ft 326 kts 259°
2026-04-23 01:59 34.43594 -115.78432 21922 ft 318 kts 260°
2026-04-23 01:59 34.43138 -115.80948 21956 ft 320 kts 259°
2026-04-23 01:59 34.42689 -115.83405 21961 ft 321 kts 259°
2026-04-23 02:00 34.42233 -115.85899 21950 ft 322 kts 260°
2026-04-23 02:00 34.41772 -115.88428 21956 ft 322 kts 259°
2026-04-23 02:00 34.41314 -115.90922 21953 ft 322 kts 259°
2026-04-23 02:00 34.40862 -115.93393 21957 ft 322 kts 259°
2026-04-23 02:01 34.40399 -115.95904 21951 ft 320 kts 260°
2026-04-23 02:01 34.39946 -115.98373 21953 ft 320 kts 259°
2026-04-23 02:01 34.39484 -116.00877 21952 ft 321 kts 259°
2026-04-23 02:01 34.39019 -116.03397 21967 ft 320 kts 259°
2026-04-23 02:02 34.38568 -116.05849 21966 ft 320 kts 259°
2026-04-23 02:02 34.38099 -116.08387 21986 ft 321 kts 259°
2026-04-23 02:02 34.37632 -116.10905 21981 ft 321 kts 259°
2026-04-23 02:02 34.37162 -116.13439 21983 ft 320 kts 260°
2026-04-23 02:03 34.36698 -116.15951 22007 ft 319 kts 259°
2026-04-23 02:03 34.36224 -116.18502 22007 ft 320 kts 259°
2026-04-23 02:03 34.35756 -116.21021 22008 ft 321 kts 260°
2026-04-23 02:03 34.35278 -116.23589 22018 ft 320 kts 260°
2026-04-23 02:04 34.34814 -116.26075 22020 ft 321 kts 259°
2026-04-23 02:04 34.34343 -116.28604 22014 ft 320 kts 260°
2026-04-23 02:04 34.33871 -116.31126 21996 ft 320 kts 260°
2026-04-23 02:04 34.33402 -116.33633 22000 ft 319 kts 260°
2026-04-23 02:05 34.32929 -116.36161 22001 ft 319 kts 260°
2026-04-23 02:05 34.32469 -116.38621 21999 ft 320 kts 260°
2026-04-23 02:05 34.32001 -116.41107 22015 ft 320 kts 260°
2026-04-23 02:05 34.31533 -116.43599 22006 ft 321 kts 260°
2026-04-23 02:06 34.31062 -116.46101 22009 ft 319 kts 260°
2026-04-23 02:06 34.30604 -116.48537 22016 ft 319 kts 260°
2026-04-23 02:06 34.30138 -116.51009 22014 ft 320 kts 259°
2026-04-23 02:06 34.29673 -116.53468 22017 ft 319 kts 259°
2026-04-23 02:07 34.29203 -116.55943 22027 ft 319 kts 260°
2026-04-23 02:07 34.28727 -116.58470 22029 ft 319 kts 260°
2026-04-23 02:07 34.28252 -116.60970 22037 ft 319 kts 260°
2026-04-23 02:07 34.27789 -116.63413 22004 ft 322 kts 259°
2026-04-23 02:08 34.27321 -116.65886 21938 ft 320 kts 259°
2026-04-23 02:08 34.26854 -116.68335 21977 ft 319 kts 259°
2026-04-23 02:08 34.26392 -116.70757 21882 ft 312 kts 260°
2026-04-23 02:08 34.25936 -116.73158 21263 ft 317 kts 259°
2026-04-23 02:09 34.25462 -116.75636 20752 ft 317 kts 259°
2026-04-23 02:09 34.24992 -116.78105 20336 ft 315 kts 259°
2026-04-23 02:09 34.24386 -116.81265 19930 ft 316 kts 260°
2026-04-23 02:09 34.23471 -116.86045 20123 ft 314 kts 259°
2026-04-23 02:10 34.22570 -116.90753 20050 ft 318 kts 259°
2026-04-23 02:10 34.21666 -116.95419 19998 ft 315 kts 259°
2026-04-23 02:10 34.20718 -117.00019 20010 ft 316 kts 255°
2026-04-23 02:10 34.19363 -117.04789 20035 ft 316 kts 255°
2026-04-23 02:11 34.18136 -117.09320 20018 ft 317 kts 255°
2026-04-23 02:11 34.16891 -117.13892 19938 ft 313 kts 255°
2026-04-23 02:11 34.15672 -117.18348 19355 ft 309 kts 256°
2026-04-23 02:11 34.14473 -117.22712 18915 ft 300 kts 255°
2026-04-23 02:12 34.13062 -117.27823 17190 ft 297 kts 255°
2026-04-23 02:12 34.12145 -117.31158 15963 ft 295 kts 255°
2026-04-23 02:12 34.11561 -117.33272 15073 ft 299 kts 255°
2026-04-23 02:12 34.10970 -117.35419 14104 ft 303 kts 255°
2026-04-23 02:13 34.10383 -117.37573 13340 ft 300 kts 257°
2026-04-23 02:13 34.09464 -117.41286 12112 ft 297 kts 257°
2026-04-23 02:13 34.08393 -117.45548 10731 ft 293 kts 256°
2026-04-23 02:13 34.07307 -117.49893 8735 ft 300 kts 256°
2026-04-23 02:14 34.06272 -117.54095 7729 ft 297 kts 256°
2026-04-23 02:14 34.05297 -117.58098 8164 ft 272 kts 258°
2026-04-23 02:14 34.04672 -117.61992 7935 ft 261 kts 262°
2026-04-23 02:14 34.04099 -117.65669 7919 ft 240 kts 261°
2026-04-23 02:15 34.03280 -117.70843 7992 ft 224 kts 262°
2026-04-23 02:15 34.03015 -117.72525 8005 ft 225 kts 262°
2026-04-23 02:15 34.02743 -117.74236 7999 ft 226 kts 262°
2026-04-23 02:16 34.02468 -117.75965 7999 ft 225 kts 262°
2026-04-23 02:16 34.02195 -117.77664 7995 ft 225 kts 262°
2026-04-23 02:16 34.01926 -117.79356 7997 ft 226 kts 262°
2026-04-23 02:16 34.01658 -117.81031 7996 ft 226 kts 262°
2026-04-23 02:17 34.01389 -117.82710 7996 ft 226 kts 262°
2026-04-23 02:17 34.01118 -117.84415 7997 ft 227 kts 262°
2026-04-23 02:17 34.00827 -117.86231 8103 ft 245 kts 262°
2026-04-23 02:17 34.00536 -117.88047 7996 ft 251 kts 262°
2026-04-23 02:18 34.00240 -117.89876 7979 ft 249 kts 262°
2026-04-23 02:18 33.99940 -117.91740 7999 ft 249 kts 262°
2026-04-23 02:18 33.99640 -117.93596 7841 ft 244 kts 262°
2026-04-23 02:18 33.99345 -117.95428 7254 ft 248 kts 262°
2026-04-23 02:19 33.99044 -117.97300 6698 ft 251 kts 261°
2026-04-23 02:19 33.98743 -117.99149 6198 ft 251 kts 261°
2026-04-23 02:19 33.98436 -118.01060 5577 ft 255 kts 261°
2026-04-23 02:19 33.98140 -118.02880 5298 ft 246 kts 261°
2026-04-23 02:20 33.97861 -118.04584 5208 ft 231 kts 261°
2026-04-23 02:20 33.97587 -118.06283 4662 ft 235 kts 261°
2026-04-23 02:20 33.97317 -118.07949 4115 ft 235 kts 261°
2026-04-23 02:20 33.97047 -118.09609 3591 ft 233 kts 261°
2026-04-23 02:21 33.96773 -118.11292 3088 ft 232 kts 260°
2026-04-23 02:21 33.96505 -118.12940 2953 ft 217 kts 260°
2026-04-23 02:21 33.96252 -118.14484 3056 ft 206 kts 260°
2026-04-23 02:21 33.96002 -118.16021 2982 ft 207 kts 260°
2026-04-23 02:22 33.95747 -118.17547 2962 ft 203 kts 266°
2026-04-23 02:22 33.95653 -118.19047 3040 ft 203 kts 266°
2026-04-23 02:22 33.95525 -118.20551 3002 ft 206 kts 265°
2026-04-23 02:22 33.95388 -118.22034 2732 ft 204 kts 264°
2026-04-23 02:23 33.95243 -118.23531 2492 ft 199 kts 264°
2026-04-23 02:23 33.95103 -118.24935 2275 ft 192 kts 264°
2026-04-23 02:23 33.94964 -118.26310 2072 ft 183 kts 263°
2026-04-23 02:23 33.94829 -118.27638 1841 ft 177 kts 263°
2026-04-23 02:24 33.94700 -118.28900 1634 ft 171 kts 263°
2026-04-23 02:24 33.94576 -118.30112 1466 ft 160 kts 263°
2026-04-23 02:24 33.94462 -118.31216 1258 ft 152 kts 263°
2026-04-23 02:24 33.94354 -118.32276 1058 ft 146 kts 263°
2026-04-23 02:25 33.94247 -118.33319 917 ft 145 kts 263°
2026-04-23 02:25 33.94141 -118.34347 763 ft 145 kts 263°
2026-04-23 02:25 33.94040 -118.35352 609 ft 144 kts 263°
2026-04-23 02:25 33.93933 -118.36395 454 ft 144 kts 259°
2026-04-23 02:26 33.93830 -118.37353 330 ft 132 kts 265°
2026-04-23 02:26 33.93845 -118.38293 273 ft 140 kts 268°
2026-04-23 02:26 33.93750 -118.39304 671 ft 152 kts 263°
2026-04-23 02:26 33.93648 -118.40448 1167 ft 165 kts 261°
2026-04-23 02:27 33.93467 -118.41673 1936 ft 167 kts 252°
2026-04-23 02:27 33.92970 -118.43032 2046 ft 210 kts 249°
2026-04-23 02:27 33.92299 -118.44935 1940 ft 244 kts 249°
2026-04-23 02:27 33.91642 -118.46870 2241 ft 241 kts 249°
2026-04-23 02:28 33.91043 -118.48529 3543 ft 199 kts 249°
2026-04-23 02:28 33.90433 -118.49964 3958 ft 199 kts 235°
2026-04-23 02:28 33.89162 -118.50946 4223 ft 210 kts 195°
2026-04-23 02:28 33.87613 -118.50790 4539 ft 216 kts 158°
2026-04-23 02:29 33.86470 -118.49660 4823 ft 218 kts 122°
2026-04-23 02:29 33.86017 -118.47983 5007 ft 222 kts 90°
2026-04-23 02:29 33.86135 -118.46018 4964 ft 242 kts 82°
2026-04-23 02:29 33.86311 -118.43907 5020 ft 258 kts 82°
2026-04-23 02:30 33.86489 -118.41826 5038 ft 269 kts 82°
2026-04-23 02:30 33.86667 -118.39853 4926 ft 248 kts 82°
2026-04-23 02:30 33.86823 -118.38120 4762 ft 227 kts 82°
2026-04-23 02:30 33.86966 -118.36487 4320 ft 222 kts 82°
2026-04-23 02:31 33.87111 -118.34856 3815 ft 221 kts 82°
2026-04-23 02:31 33.87264 -118.33178 3588 ft 235 kts 81°
2026-04-23 02:31 33.87421 -118.31439 3650 ft 241 kts 82°
2026-04-23 02:31 33.87592 -118.29607 3598 ft 251 kts 82°
2026-04-23 02:32 33.87774 -118.27748 3591 ft 257 kts 82°
2026-04-23 02:32 33.87963 -118.25824 3585 ft 261 kts 82°
2026-04-23 02:32 33.88158 -118.23853 3586 ft 265 kts 82°
2026-04-23 02:32 33.88347 -118.21877 3588 ft 268 kts 82°
2026-04-23 02:33 33.88529 -118.19914 3590 ft 270 kts 82°
2026-04-23 02:33 33.88718 -118.17943 3567 ft 256 kts 82°
2026-04-23 02:33 33.88893 -118.16145 3510 ft 227 kts 82°
2026-04-23 02:33 33.89046 -118.14580 3517 ft 199 kts 81°
2026-04-23 02:34 33.89173 -118.13190 3536 ft 174 kts 81°
2026-04-23 02:34 33.89345 -118.11977 3438 ft 157 kts 64°
2026-04-23 02:34 33.89923 -118.10927 3568 ft 171 kts 42°
2026-04-23 02:34 33.90951 -118.10301 3695 ft 198 kts
2026-04-23 02:35 33.92227 -118.10574 3545 ft 204 kts 327°
2026-04-23 02:35 33.93182 -118.11513 3648 ft 190 kts 320°
2026-04-23 02:35 33.93930 -118.12605 3619 ft 194 kts 304°
2026-04-23 02:35 33.94846 -118.14223 3566 ft 191 kts 305°
2026-04-23 02:36 33.95605 -118.15596 3315 ft 188 kts 299°
2026-04-23 02:36 33.95787 -118.16891 3142 ft 188 kts 265°
2026-04-23 02:36 33.95689 -118.18211 3214 ft 180 kts 268°
2026-04-23 02:36 33.95601 -118.19421 3128 ft 169 kts 266°
2026-04-23 02:37 33.95502 -118.20594 2950 ft 165 kts 265°
2026-04-23 02:37 33.95398 -118.21733 2767 ft 163 kts 264°
2026-04-23 02:37 33.95294 -118.22833 2602 ft 160 kts 264°
2026-04-23 02:37 33.95276 -118.23030 2571 ft 161 kts 264°
2026-04-23 02:38 33.95205 -118.23753 2465 ft 161 kts 264°
2026-04-23 02:38 33.95094 -118.24882 2283 ft 158 kts 264°
2026-04-23 02:38 33.94868 -118.27162 1892 ft 150 kts 263°
2026-04-23 02:38 33.94756 -118.28261 1725 ft 148 kts 263°
2026-04-23 02:39 33.94649 -118.29305 1567 ft 146 kts 263°
2026-04-23 02:39 33.94532 -118.30450 1389 ft 147 kts 263°
2026-04-23 02:39 33.94418 -118.31578 1211 ft 146 kts 263°
2026-04-23 02:39 33.94299 -118.32757 1024 ft 144 kts 263°
2026-04-23 02:40 33.94194 -118.33779 861 ft 143 kts 263°
2026-04-23 02:40 33.94161 -118.34109 804 ft 144 kts 263°
2026-04-23 02:40 33.94009 -118.35596 567 ft 140 kts 263°
2026-04-23 02:40 33.93908 -118.36601 408 ft 139 kts 262°
2026-04-23 02:41 33.93812 -118.37567 247 ft 135 kts 263°
2026-04-23 02:41 33.93715 -118.38516 131 ft 132 kts 260°
2026-04-23 02:41 33.93623 -118.39371 113 ft 86 kts 263°
2026-04-23 02:41 33.93585 -118.39753 117 ft 19 kts 264°
2026-04-23 02:42 33.93567 -118.39944 121 ft 34 kts 263°
2026-04-23 02:42 33.93536 -118.40256 125 ft 54 kts 267°
2026-04-23 02:42 33.93584 -118.40613 130 ft 30 kts 289°
2026-04-23 02:42 33.93586 -118.40826 131 ft 26 kts 262°
2026-04-23 02:43 33.93567 -118.41022 131 ft 24 kts 263°
2026-04-23 02:43 33.93566 -118.41203 131 ft 22 kts 292°
2026-04-23 02:43 33.93674 -118.41273 131 ft 21 kts 352°
2026-04-23 02:43 33.93789 -118.41258 131 ft 19 kts 358°
2026-04-23 02:44 33.93903 -118.41270 130 ft 22 kts 353°
2026-04-23 02:44 33.94039 -118.41264 127 ft 21 kts 46°
2026-04-23 02:44 33.94023 -118.41190 128 ft 5 kts 144°
2026-04-23 02:44 33.94018 -118.41110 129 ft 17 kts 85°
2026-04-23 02:45 33.94020 -118.41084 130 ft 4 kts 84°
2026-04-23 02:45 33.94021 -118.41074 130 ft 0 kts 83°